Hollywood, FL

4:10 AM EST on February 24, 2017 (GMT -0500)
North Perry

Weather History for KHWO - January, 2013

Change the Weather History Date:

Thursday, January 24, 2013

  Actual Average (KFLL) Record (KFLL)
Temperature  
Mean Temperature 65 °F -  
Max Temperature 75 °F 75 °F 86 °F (1973)
Min Temperature 55 °F 57 °F 34 °F (1960)
Growing Degree Days 15 (Base 50)    
Moisture  
Dew Point 52 °F    
Average Humidity 63    
Maximum Humidity 87    
Minimum Humidity 42    
Precipitation  
Precipitation 0.00 in - - ()
Sea Level Pressure  
Sea Level Pressure 30.27 in    
Wind  
Wind Speed 5 mph (North)    
Max Wind Speed 13 mph    
Max Gust Speed -    
Visibility 10 miles    
Events      
Averages and records for this station are not official NWS values.
T = Trace of Precipitation, MM = Missing Value Source: NWS Daily Summary

Daily Weather History Graph

Daily Weather History Graph

Search for Another Location

Airport or City:

Trip Planner

Search our weather history database for the weather conditions in past years. The results will help you decide how hot, cold, wet, or windy it might be!

Date:

Astronomy

Jan. 24, 2013 Rise Set
Actual Time 7:08 AM EST 5:58 PM EST
Civil Twilight 6:43 AM EST 6:22 PM EST
Nautical Twilight 6:15 AM EST 6:50 PM EST
Astronomical Twilight 5:48 AM EST 7:18 PM EST
Moon 4:02 PM EST 5:00 AM EST
Length of Visible Light 11h 39m
Length of Day
10h 50m
Waxing Gibbous, 94% of the Moon is Illuminated
Jan 24
Waxing Gibbous
Jan 26
Full
Feb 3
Last Quarter
Feb 10
New
Feb 17
First Quarter

Hourly Weather History & Observations

Time (EST) Temp. Dew Point Humidity Pressure Visibility Wind Dir Wind Speed Gust Speed Precip Events Conditions
12:53 AM 59.0 °F 53.1 °F 81% 30.27 in 10.0 mi Calm Calm - N/A   Clear
1:53 AM 57.9 °F 54.0 °F 87% 30.27 in 10.0 mi North 5.8 mph - N/A   Clear
2:53 AM 57.0 °F 53.1 °F 87% 30.26 in 10.0 mi North 4.6 mph - N/A   Clear
3:53 AM 57.9 °F 54.0 °F 87% 30.25 in 10.0 mi North 6.9 mph - N/A   Clear
4:53 AM 57.9 °F 53.1 °F 84% 30.25 in 10.0 mi NNW 3.5 mph - N/A   Clear
5:53 AM 55.9 °F 52.0 °F 87% 30.25 in 10.0 mi North 4.6 mph - N/A   Clear
7:53 AM 60.1 °F 54.0 °F 80% 30.30 in 10.0 mi North 6.9 mph - N/A   Partly Cloudy
8:53 AM 64.0 °F 50.0 °F 60% 30.31 in 10.0 mi NNW 6.9 mph - N/A   Clear
9:53 AM 71.1 °F 48.9 °F 45% 30.32 in 10.0 mi NNW 8.1 mph - N/A   Clear
10:53 AM 73.0 °F 51.1 °F 46% 30.31 in 10.0 mi North 6.9 mph - N/A   Clear
11:53 AM 75.0 °F 53.1 °F 46% 30.29 in 10.0 mi North 9.2 mph - N/A   Clear
12:53 PM 75.0 °F 52.0 °F 44% 30.27 in 10.0 mi NNE 10.4 mph - N/A   Partly Cloudy
1:53 PM 75.9 °F 51.1 °F 42% 30.24 in 10.0 mi NNE 9.2 mph - N/A   Scattered Clouds
2:53 PM 75.9 °F 53.1 °F 45% 30.22 in 10.0 mi East 12.7 mph - N/A   Partly Cloudy
3:53 PM 73.0 °F 52.0 °F 48% 30.22 in 10.0 mi ENE 8.1 mph - N/A   Partly Cloudy
4:53 PM 72.0 °F 53.1 °F 51% 30.24 in 10.0 mi ENE 8.1 mph - N/A   Partly Cloudy
5:53 PM 70.0 °F 53.1 °F 55% 30.25 in 10.0 mi NE 6.9 mph - N/A   Clear
6:53 PM 66.9 °F 52.0 °F 59% 30.26 in 10.0 mi NE 3.5 mph - N/A   Clear
7:53 PM 64.9 °F 50.0 °F 58% 30.27 in 10.0 mi North 6.9 mph - N/A   Clear
8:53 PM 63.0 °F 48.9 °F 60% 30.28 in 10.0 mi North 6.9 mph - N/A   Clear
9:53 PM 62.1 °F 50.0 °F 65% 30.29 in 10.0 mi North 6.9 mph - N/A   Clear
10:53 PM 61.0 °F 51.1 °F 70% 30.29 in 10.0 mi North 5.8 mph - N/A   Clear
11:53 PM 61.0 °F 51.1 °F 70% 30.28 in 10.0 mi North 4.6 mph - N/A   Clear